Airfield :
LOGIN :

Register | Disclaimer

   EN    FR    IT 

 










Legend :    VFR   Marginal VFR   IFR   Intensive IFR   Very Intensive IFR
Visi :
Ceiling :
>= 8 km
>= 3000ft
5 to 8 km
1000 to 3000 ft
1500m to 5 km
500 to 1000 ft
800 to 1500m
200 to 500 ft
< 800m
< 200 ft
Symbols :   Thunderstorms  Fog  Heavy snow  Heavy precipitations  Wind > 20 kt
SIGMETs :     Misc.  Thunderstorms  Icing  Turbulence  Mountain Waves  Volcanic Ashes







- Airport Elevation : 46 ft
- IATA code : PAF


LPMT - Montijo Air Base

CURRENT METAR :
  • 112200Z 27003KT 8000 NSC 08/08 Q1024

EXPIRED METARs :
  • 112100Z 25003KT 8000 NSC 09/09 Q1024
  • 112000Z 19001KT 9999 FEW045 09/09 Q1024
  • 111900Z VRB01KT 9999 FEW045 11/11 Q1024

TAF TAF LPMT
Valid from the 11 at 18:00 until the 12 at 18:00 UTC


111710Z 1118/1218 VRB02KT 9999 BKN035
PROB30 1119/1122 31005KT 4000 BR SCT012 SCT030
BECMG 1122/1201 0200 FG VV002
PROB40 1201/1210 2000 DZ BR BKN005
BECMG 1210/1213 19008KT 9999 NSW BKN015
TEMPO 1213/1218 4000 -RADZ BKN009
No reported NOTAMs for that airfield.



MET'MAP, your aeronautical weather chart ! - Copyright ORBIFLY December 2007 - Disclaimer

ORBIFLY MET'MAP TEAM :

Programming & Development : Alexandra Zaïnal
Concept & Development : Baudouin d'Aumeries
Co-Development & Prog : Marc-Olivier Méhu
Technical & hardware support : Manuel Goepfert

Contact : metmap@orbifly.com




SOURCES & CREDITS :

   NOAA